Kagayaki

operational
NORAD ID: 33495 Int'l Des: 2009-002 Owner: SORUN Country: J
LEOCIRCULARRETROGRADESSO

Kagayakiについて

説明を読み込み中...

リアルタイム位置

3D地球を読み込み中...

次回通過

高度履歴

Altitude vs Time

uPlot chart will show altitude changes over time

軌道要素

1 33495U 09002D 26063.14287222 .00000682 00000-0 10977-3 0 9993
2 33495 98.1307 328.4204 0007997 15.9244 344.2215 14.74706250918739
Epoch: Mar 4, 2026 • Age: 18 hours

現在のステータス

高度 674.5 km
速度 7.52 km/s
衛星直下点 -78.39°S, 55.43°W
打ち上げ日 Jan 23, 2009
運用期間 17.1 years
タイプ other

技術仕様

分類 Payload
質量 20.00 kg
乾燥質量 20.00 kg
総質量 20.00 kg
長さ 0.30 m
直径 0.30 m
スパン 3.00 m
形状 Box + Ant + Sail
製造者 SORUN/TOKAI
バスタイプ Kagayaki
フェーズステータス In Orbit
所有者/国 SORUN/J

大規模コンステレーション

Loading constellations...